STARLINK-3136, 49443

Orbit data source: Space-Track

STARLINK-3136, 49443 is a payload satellite owned by SpaceX/Seattle (US) in LEO that was launched on Sat, 13 Nov 2021 UTC via an FALCON 9 launch vehicle from the Air Force Eastern Test Range (AFETR). Payload-class satellites include a variety of spacecraft equipped with specific instruments for various scientific and technological missions. These include communications satellites like Starlink; space stations such as the ISS; scientific satellites like the Hubble; Earth observation satellites from companies like Planet Labs, Umbra, and HawkEye 360; GPS; miniature CubeSats for education and research; and military/defense satellites.

Loading next visibility...
Identifier
49443, 2021-104AM
Orbit
LEO
Country
Flag of USUS
Related business
Manufacturer
SpaceX/Seattle
Mission
Operational Commercial Communications
Bus & Motor
STARLINK, Unknown motor
Mass
290 kg wet, ~270 kg dry
Launch date (UTC)
2021-11-13 (5 years ago)
Launch vehicle
FALCON 9
Launch site
Air Force Eastern Test Range (AFETR)
Object type
Payload
Rocket body
Debris
Shape & HBR
Box + 1 Pan, 10.1 m
Radar Cross Section
13.562 m², Large (>1 m²)

Expand to show TLE details & history
Last TLE update: 1 week ago

TLE from 1 week ago
0 STARLINK-3136
1 49443U 21104AM  26154.28766969  .00017331  00000-0  10579-2 0  9992
2 49443  53.2124 184.5733 0002584  33.6889 326.4267 15.10411392251847
Epoch: 2026-06-03T06:54Z
TLE epoch observation values (Epoch: 2026-06-03T06:54:14.661Z)
Latitude
-0.00006°
Longitude
-170.73628°
Altitude
534.354 km
Speed
7.597 km/s
True Right ascension
12h 18m 17s
True Declination
0° 00' 00"
Sunlit
Object was in daylight at epoch
Visualization orbit readout
Latitude
Unknown
Longitude
Unknown
Altitude
Unknown
Speed
Unknown
Apparent Right ascension
Unknown
Apparent Declination
Unknown
Sunlit
N/A
Visualization observer readout
Local Sidereal Time
13:21:12
Azimuth
Unknown
Elevation
Unknown
Doppler factor
Unknown
Orbital elements
Apogee altitude
536.977 km
Perigee altitude
533.404 km
Semi-major axis
6,913.327 km
Eccentricity
0.00026
Inclination
53.2124°
RAAN
184.5733°
Arg. of periapsis
33.6889°
True anomaly
326.41032°
Mean anomaly
326.4267°
Eccentric anomaly
326.41851°
Mean motion
3.77583 °/min
Orbital period
95.34 mins
BSTAR
0.0010579
Loading maneuver chart data...
Computing Atmospheric mass density...
Loading historical data...
Loading historical data...
Loading historical data...
Loading historical data...
Loading historical data...
Loading historical data...
Loading historical data...

Documentation

Showing up to 5 results
|